Location: ?
(35.4996°N, 139.3166°E)
Time: 08:40:18
(UTC+00:00)

YAOGAN 6 - Pass Details

Date: 18 April 2024
Orbit: 415 x 435 km, 97.2° (Epoch: 19 May)

Event Time Altitude Azimuth Distance (km) Brightness Sun altitude
Rises 17:54:54 0° 21° (NNE) 2,405 7.0 -24.8°
Reaches altitude 10° 17:57:01 10° 31° (NNE) 1,539 6.0 -24.4°
Maximum altitude 18:00:04 34° 98° (E) 732 3.8 -23.9°
Enters shadow 18:00:10 34° 103° (ESE) 734 3.7 -23.9°
